Location: Paddlesworth
(51.1000°N, 1.1333°E)
Time: 04:40:53
(UTC+00:00)

Cosmos 1242 Rocket - Pass Details

Date: 11 May 2021
Orbit: 445 x 484 km, 81.2° (Epoch: 14 June)

Event Time Altitude Azimuth Distance (km) Brightness Sun altitude
Rises 20:25:11 0° 190° (S) 2,511 5.9 -7.4°
Reaches altitude 10° 20:27:17 10° 190° (S) 1,632 4.9 -7.6°
Maximum altitude 20:30:51 88° 98° (E) 475 2.5 -8.0°
Drops below altitude 10° 20:34:24 10° 13° (NNE) 1,624 5.7 -8.4°
Sets 20:36:29 0° 13° (NNE) 2,497 6.6 -8.7°
